TimeEST,TemperatureF,Dew PointF,Humidity,Sea Level PressureIn,VisibilityMPH,Wind Direction,Wind SpeedMPH,Gust SpeedMPH,PrecipitationIn,Events,Conditions,WindDirDegrees,DateUTC
12:54 AM,23.0,9.0,55,30.46,10.0,West,5.8,-,N/A,,Clear,260,2013-11-29 05:54:00
1:54 AM,25.0,9.0,51,30.48,10.0,West,6.9,-,N/A,,Overcast,260,2013-11-29 06:54:00
2:54 AM,24.1,10.0,55,30.48,10.0,West,4.6,-,N/A,,Overcast,270,2013-11-29 07:54:00
3:54 AM,25.0,10.9,55,30.48,10.0,WSW,3.5,-,N/A,,Overcast,240,2013-11-29 08:54:00
4:54 AM,24.1,10.9,57,30.50,10.0,West,3.5,-,N/A,,Overcast,270,2013-11-29 09:54:00
5:54 AM,21.9,10.9,63,30.52,10.0,Calm,Calm,-,N/A,,Clear,0,2013-11-29 10:54:00
6:54 AM,19.9,10.9,68,30.54,10.0,Calm,Calm,-,N/A,,Clear,0,2013-11-29 11:54:00
7:54 AM,23.0,12.9,65,30.57,10.0,Calm,Calm,-,N/A,,Clear,0,2013-11-29 12:54:00
8:54 AM,25.0,10.9,55,30.59,10.0,North,6.9,-,N/A,,Clear,350,2013-11-29 13:54:00
9:54 AM,27.0,7.0,43,30.59,10.0,NNW,8.1,-,N/A,,Clear,330,2013-11-29 14:54:00
10:54 AM,28.0,5.0,38,30.58,10.0,WNW,11.5,-,0.00,,Clear,290,2013-11-29 15:54:00
11:54 AM,28.9,5.0,36,30.58,10.0,NW,8.1,18.4,0.00,,Clear,320,2013-11-29 16:54:00
12:54 PM,30.9,5.0,33,30.58,10.0,WNW,6.9,-,0.00,,Clear,300,2013-11-29 17:54:00
1:54 PM,32.0,3.9,31,30.57,10.0,West,9.2,-,N/A,,Clear,280,2013-11-29 18:54:00
2:54 PM,30.9,-0.9,26,30.59,10.0,NW,9.2,-,0.00,,Clear,320,2013-11-29 19:54:00
3:54 PM,30.0,-0.9,27,30.61,10.0,NW,10.4,16.1,N/A,,Clear,310,2013-11-29 20:54:00
4:54 PM,28.0,-0.9,29,30.64,10.0,NNW,5.8,-,N/A,,Clear,340,2013-11-29 21:54:00
5:54 PM,26.1,-0.9,31,30.67,10.0,NNW,6.9,-,N/A,,Clear,340,2013-11-29 22:54:00
6:54 PM,25.0,1.9,37,30.70,10.0,NNW,4.6,-,N/A,,Clear,330,2013-11-29 23:54:00
7:54 PM,24.1,3.0,40,30.71,10.0,NNW,3.5,-,N/A,,Clear,330,2013-11-30 00:54:00
8:54 PM,23.0,3.9,44,30.73,10.0,NNW,4.6,-,N/A,,Clear,330,2013-11-30 01:54:00
9:54 PM,21.9,3.9,46,30.75,10.0,Calm,Calm,-,N/A,,Clear,0,2013-11-30 02:54:00
10:54 PM,19.9,5.0,52,30.76,10.0,North,5.8,-,N/A,,Clear,360,2013-11-30 03:54:00
11:54 PM,19.9,5.0,52,30.76,10.0,North,5.8,-,N/A,,Clear,350,2013-11-30 04:54:00